TimeMDT,TemperatureF,Dew PointF,Humidity,Sea Level PressureIn,VisibilityMPH,Wind Direction,Wind SpeedMPH,Gust SpeedMPH,PrecipitationIn,Events,Conditions,WindDirDegrees,DateUTC
12:53 AM,55.0,25.0,31,30.02,10.0,Calm,Calm,-,N/A,,Clear,0,2013-05-15 06:53:00
1:53 AM,54.0,25.0,33,30.01,10.0,WSW,9.2,-,N/A,,Clear,240,2013-05-15 07:53:00
2:53 AM,52.0,25.0,35,30.02,10.0,WSW,5.8,-,N/A,,Clear,240,2013-05-15 08:53:00
3:53 AM,48.9,24.1,38,30.03,10.0,Calm,Calm,-,N/A,,Clear,0,2013-05-15 09:53:00
4:53 AM,48.9,24.1,38,30.03,10.0,Calm,Calm,-,N/A,,Clear,0,2013-05-15 10:53:00
5:53 AM,48.0,25.0,41,30.04,10.0,West,6.9,-,N/A,,Clear,260,2013-05-15 11:53:00
6:53 AM,46.9,27.0,46,30.05,10.0,Calm,Calm,-,N/A,,Clear,0,2013-05-15 12:53:00
7:53 AM,48.9,28.0,44,30.06,10.0,NE,4.6,-,N/A,,Clear,40,2013-05-15 13:53:00
8:53 AM,54.0,27.0,35,30.05,10.0,Calm,Calm,-,N/A,,Clear,0,2013-05-15 14:53:00
9:53 AM,57.9,26.1,30,30.03,10.0,NW,10.4,-,N/A,,Clear,310,2013-05-15 15:53:00
10:53 AM,60.1,27.0,28,30.01,10.0,Variable,4.6,-,N/A,,Clear,0,2013-05-15 16:53:00
11:53 AM,63.0,28.9,28,29.99,10.0,North,8.1,-,N/A,,Clear,360,2013-05-15 17:53:00
12:53 PM,63.0,28.9,28,29.96,10.0,Variable,3.5,-,N/A,,Clear,0,2013-05-15 18:53:00
1:53 PM,66.9,30.0,25,29.92,10.0,ESE,6.9,-,N/A,,Clear,110,2013-05-15 19:53:00
2:53 PM,69.1,27.0,21,29.90,10.0,NNW,5.8,-,N/A,,Clear,340,2013-05-15 20:53:00
3:53 PM,69.1,25.0,19,29.89,10.0,Calm,Calm,-,N/A,,Clear,0,2013-05-15 21:53:00
4:53 PM,70.0,25.0,18,29.87,10.0,Variable,6.9,-,N/A,,Clear,0,2013-05-15 22:53:00
5:53 PM,69.1,26.1,20,29.87,10.0,Variable,4.6,-,N/A,,Partly Cloudy,0,2013-05-15 23:53:00
6:53 PM,66.9,28.0,23,29.87,10.0,NNW,16.1,-,N/A,,Scattered Clouds,330,2013-05-16 00:53:00
7:53 PM,64.9,25.0,22,29.87,10.0,NNW,8.1,-,N/A,,Scattered Clouds,330,2013-05-16 01:53:00
8:53 PM,64.0,25.0,23,29.87,10.0,WNW,5.8,-,N/A,,Overcast,300,2013-05-16 02:53:00
9:53 PM,62.1,26.1,25,29.88,10.0,West,6.9,-,N/A,,Overcast,280,2013-05-16 03:53:00
10:53 PM,55.9,35.1,45,29.94,10.0,WNW,10.4,-,N/A,,Overcast,290,2013-05-16 04:53:00
11:53 PM,55.9,36.0,47,29.92,10.0,WSW,10.4,-,N/A,,Overcast,240,2013-05-16 05:53:00